QPF
0.00 0.00 0.00 0.00 0.00 0.00 0.00 0.00 0.00 0.00 0.00 0.00 0.00 0.00 0.00 0.00 0.00 0.00 0.00 0.00 0.01 0.03 0.05 0.08 0.12 0.16 0.15 0.14 0.12 0.10 0.08 0.07 0.06 0.05 0.04 0.04 0.03 0.03 0.03 0.03 0.04 0.04 0.03 0.04
0.00 0.00 0.00 0.00 0.00 0.00 0.00 0.00 0.00 0.00 0.00 0.00 0.00 0.00 0.00 0.00 0.00 0.00 0.00 0.00 0.01 0.02 0.04 0.06 0.13 0.23 0.25 0.22 0.17 0.15 0.12 0.13 0.14 0.10 0.09 0.07 0.06 0.06 0.08 0.09 0.09 0.08 0.07 0.06
0.00 0.00 0.00 0.00 0.00 0.00 0.00 0.00 0.00 0.00 0.00 0.00 0.00 0.00 0.00 0.00 0.00 0.00 0.00 0.00 0.01 0.02 0.04 0.05 0.12 0.20 0.29 0.28 0.27 0.25 0.19 0.20 0.18 0.14 0.13 0.11 0.11 0.12 0.13 0.13 0.13 0.13 0.12 0.09
0.00 0.00 0.00 0.00 0.00 0.00 0.00 0.00 0.00 0.00 0.00 0.00 0.00 0.00 0.00 0.00 0.00 0.00 0.00 0.00 0.00 0.01 0.02 0.03 0.06 0.12 0.19 0.27 0.31 0.29 0.28 0.27 0.21 0.20 0.24 0.22 0.19 0.17 0.17 0.18 0.17 0.16 0.15 0.12
0.00 0.00 0.00 0.00 0.00 0.00 0.00 0.00 0.00 0.00 0.00 0.00 0.00 0.00 0.00 0.00 0.00 0.00 0.00 0.00 0.00 0.01 0.01 0.03 0.04 0.05 0.10 0.20 0.22 0.20 0.23 0.26 0.31 0.37 0.34 0.27 0.24 0.22 0.21 0.23 0.21 0.19 0.17 0.14
0.00 0.00 0.00 0.00 0.00 0.00 0.00 0.00 0.00 0.00 0.00 0.00 0.00 0.00 0.00 0.00 0.00 0.00 0.00 0.00 0.01 0.01 0.01 0.02 0.02 0.03 0.08 0.13 0.16 0.19 0.23 0.31 0.35 0.35 0.34 0.33 0.31 0.29 0.29 0.26 0.22 0.19 0.15 0.12
0.00 0.00 0.00 0.00 0.00 0.00 0.00 0.00 0.00 0.00 0.00 0.00 0.00 0.00 0.01 0.01 0.00 0.00 0.00 0.01 0.02 0.02 0.02 0.02 0.02 0.04 0.06 0.09 0.15 0.22 0.22 0.24 0.26 0.29 0.29 0.27 0.25 0.27 0.28 0.27 0.24 0.20 0.15 0.09
0.00 0.00 0.00 0.00 0.00 0.00 0.00 0.00 0.00 0.00 0.00 0.00 0.00 0.01 0.02 0.01 0.00 0.01 0.01 0.02 0.02 0.03 0.03 0.03 0.03 0.04 0.04 0.05 0.07 0.13 0.15 0.16 0.17 0.19 0.23 0.23 0.23 0.23 0.25 0.23 0.19 0.14 0.09 0.06
0.00 0.00 0.00 0.00 0.00 0.00 0.00 0.00 0.00 0.00 0.00 0.00 0.00 0.03 0.05 0.03 0.02 0.01 0.02 0.02 0.03 0.03 0.03 0.02 0.02 0.03 0.03 0.03 0.04 0.06 0.08 0.09 0.12 0.15 0.17 0.18 0.20 0.21 0.21 0.17 0.13 0.09 0.06 0.03
0.01 0.00 0.00 0.00 0.00 0.00 0.00 0.00 0.00 0.00 0.00 0.00 0.00 0.04 0.09 0.08 0.06 0.04 0.03 0.03 0.03 0.03 0.03 0.03 0.03 0.02 0.03 0.03 0.03 0.04 0.05 0.07 0.09 0.12 0.13 0.13 0.15 0.15 0.13 0.11 0.09 0.05 0.03 0.01
0.03 0.01 0.00 0.00 0.00 0.00 0.00 0.00 0.00 0.00 0.00 0.00 0.00 0.05 0.10 0.14 0.14 0.10 0.07 0.04 0.03 0.03 0.02 0.03 0.03 0.03 0.03 0.02 0.02 0.03 0.04 0.06 0.08 0.09 0.09 0.09 0.10 0.09 0.07 0.05 0.03 0.02 0.02 0.01
0.04 0.03 0.02 0.01 0.01 0.00 0.00 0.00 0.00 0.00 0.00 0.00 0.01 0.08 0.16 0.20 0.20 0.15 0.10 0.07 0.05 0.03 0.02 0.02 0.02 0.02 0.03 0.02 0.02 0.03 0.03 0.04 0.05 0.05 0.05 0.05 0.05 0.04 0.04 0.03 0.02 0.02 0.02 0.02
0.01 0.02 0.04 0.03 0.02 0.01 0.00 0.00 0.00 0.00 0.00 0.00 0.01 0.12 0.22 0.27 0.27 0.20 0.14 0.11 0.08 0.05 0.04 0.04 0.03 0.03 0.03 0.03 0.02 0.02 0.03 0.03 0.03 0.03 0.03 0.03 0.03 0.02 0.03 0.03 0.03 0.03 0.03 0.02
0.01 0.02 0.04 0.07 0.06 0.02 0.01 0.00 0.00 0.00 0.00 0.01 0.04 0.11 0.17 0.25 0.30 0.28 0.23 0.18 0.15 0.11 0.08 0.07 0.07 0.06 0.04 0.03 0.04 0.04 0.04 0.04 0.04 0.03 0.03 0.03 0.03 0.03 0.03 0.03 0.03 0.02 0.02 0.02
0.00 0.01 0.02 0.03 0.03 0.02 0.01 0.00 0.01 0.01 0.02 0.05 0.09 0.13 0.19 0.30 0.36 0.33 0.27 0.27 0.23 0.17 0.13 0.10 0.09 0.09 0.09 0.09 0.09 0.09 0.08 0.08 0.07 0.06 0.05 0.04 0.03 0.03 0.03 0.03 0.02 0.02 0.01 0.01
0.00 0.01 0.01 0.02 0.02 0.03 0.03 0.03 0.04 0.08 0.10 0.11 0.15 0.20 0.31 0.36 0.39 0.37 0.33 0.31 0.28 0.25 0.21 0.17 0.15 0.16 0.17 0.17 0.17 0.16 0.15 0.13 0.11 0.09 0.07 0.06 0.05 0.04 0.03 0.02 0.01 0.01 0.01 0.01
0.00 0.00 0.01 0.01 0.03 0.04 0.10 0.12 0.11 0.14 0.16 0.16 0.17 0.20 0.28 0.30 0.33 0.38 0.40 0.37 0.32 0.27 0.26 0.24 0.21 0.20 0.22 0.23 0.23 0.22 0.20 0.17 0.14 0.12 0.10 0.07 0.05 0.04 0.02 0.01 0.01 0.01 0.01 0.01
0.00 0.00 0.00 0.01 0.02 0.07 0.09 0.08 0.11 0.15 0.13 0.12 0.11 0.14 0.15 0.15 0.19 0.22 0.25 0.27 0.27 0.24 0.23 0.23 0.23 0.24 0.25 0.24 0.22 0.20 0.16 0.13 0.10 0.08 0.06 0.05 0.04 0.03 0.02 0.02 0.01 0.01 0.01 0.01
0.00 0.00 0.01 0.01 0.02 0.06 0.07 0.06 0.06 0.10 0.13 0.14 0.09 0.05 0.05 0.05 0.06 0.09 0.12 0.14 0.17 0.21 0.23 0.21 0.21 0.22 0.21 0.18 0.13 0.08 0.05 0.04 0.03 0.02 0.02 0.02 0.02 0.01 0.01 0.01 0.01 0.01 0.00 0.00
0.00 0.00 0.01 0.02 0.03 0.05 0.06 0.04 0.03 0.04 0.09 0.12 0.13 0.10 0.08 0.09 0.08 0.08 0.10 0.10 0.12 0.13 0.13 0.12 0.11 0.10 0.08 0.07 0.05 0.04 0.03 0.02 0.01 0.01 0.01 0.01 0.00 0.00 0.00 0.01 0.00 0.00 0.00 0.00
0.00 0.00 0.01 0.03 0.04 0.06 0.04 0.02 0.02 0.04 0.06 0.08 0.10 0.09 0.08 0.08 0.06 0.04 0.04 0.04 0.04 0.05 0.05 0.04 0.05 0.05 0.04 0.04 0.03 0.03 0.02 0.01 0.01 0.00 0.00 0.00 0.00 0.00 0.00 0.00 0.00 0.00 0.00 0.00
0.00 0.00 0.00 0.01 0.02 0.03 0.03 0.01 0.02 0.02 0.03 0.03 0.03 0.03 0.03 0.02 0.02 0.01 0.02 0.01 0.01 0.01 0.01 0.01 0.02 0.01 0.01 0.01 0.01 0.01 0.00 0.00 0.00 0.00 0.00 0.00 0.00 0.00 0.00 0.00 0.00 0.00 0.00 0.00
0.00 0.00 0.00 0.01 0.02 0.03 0.02 0.01 0.02 0.02 0.03 0.02 0.01 0.00 0.00 0.00 0.00 0.00 0.00 0.00 0.00 0.00 0.00 0.00 0.00 0.00 0.00 0.00 0.00 0.00 0.00 0.00 0.01 0.01 0.01 0.00 0.00 0.00 0.00 0.00 0.00 0.00 0.00 0.00
0.00 0.00 0.00 0.01 0.03 0.04 0.03 0.02 0.01 0.01 0.01 0.00 0.01 0.01 0.00 0.00 0.00 0.00 0.00 0.01 0.00 0.00 0.00 0.00 0.00 0.00 0.01 0.01 0.01 0.01 0.01 0.02 0.03 0.03 0.02 0.01 0.01 0.01 0.01 0.01 0.00 0.00 0.00 0.00
0.00 0.00 0.00 0.02 0.05 0.05 0.05 0.02 0.01 0.01 0.01 0.01 0.01 0.01 0.01 0.00 0.00 0.00 0.00 0.00 0.00 0.00 0.01 0.01 0.01 0.01 0.01 0.01 0.01 0.02 0.02 0.03 0.04 0.03 0.02 0.01 0.01 0.02 0.01 0.01 0.01 0.00 0.00 0.00
0.00 0.00 0.00 0.01 0.02 0.02 0.02 0.01 0.01 0.01 0.02 0.02 0.01 0.02 0.01 0.00 0.00 0.00 0.00 0.00 0.00 0.00 0.01 0.01 0.01 0.01 0.01 0.00 0.01 0.01 0.02 0.02 0.01 0.01 0.01 0.01 0.01 0.01 0.02 0.02 0.02 0.01 0.00 0.00
MSLP
1011.68 1012.39 1012.89 1013.17 1013.25 1013.17 1012.98 1012.73 1012.44 1012.08 1011.65 1011.11 1010.46 1009.70 1008.88 1008.08 1007.37 1006.86 1006.59 1006.59 1006.85 1007.30 1007.86 1008.44 1008.96 1009.37 1009.68 1009.91 1010.11 1010.36 1010.72 1011.22 1011.85 1012.57 1013.33 1014.07 1014.70 1015.21 1015.56 1015.80 1015.96 1016.11 1016.31 1016.58
1011.86 1012.44 1012.81 1013.00 1013.03 1012.96 1012.85 1012.71 1012.54 1012.31 1011.98 1011.51 1010.89 1010.12 1009.26 1008.41 1007.65 1007.09 1006.80 1006.78 1007.02 1007.44 1007.97 1008.49 1008.94 1009.27 1009.48 1009.63 1009.77 1009.99 1010.36 1010.91 1011.62 1012.45 1013.33 1014.17 1014.91 1015.49 1015.89 1016.15 1016.32 1016.47 1016.65 1016.91
1011.80 1012.22 1012.45 1012.55 1012.56 1012.55 1012.55 1012.57 1012.57 1012.52 1012.34 1011.99 1011.43 1010.69 1009.84 1008.96 1008.17 1007.58 1007.25 1007.20 1007.40 1007.78 1008.24 1008.68 1009.02 1009.24 1009.34 1009.39 1009.46 1009.64 1010.00 1010.57 1011.34 1012.25 1013.22 1014.16 1014.99 1015.65 1016.12 1016.44 1016.65 1016.82 1017.01 1017.28
1011.53 1011.75 1011.85 1011.87 1011.89 1011.95 1012.10 1012.31 1012.54 1012.69 1012.70 1012.50 1012.05 1011.38 1010.57 1009.71 1008.92 1008.31 1007.96 1007.87 1008.01 1008.33 1008.70 1009.03 1009.27 1009.37 1009.36 1009.30 1009.28 1009.40 1009.72 1010.29 1011.07 1012.02 1013.04 1014.05 1014.94 1015.68 1016.23 1016.61 1016.89 1017.11 1017.35 1017.64
1011.12 1011.15 1011.10 1011.06 1011.10 1011.26 1011.57 1011.99 1012.44 1012.82 1013.03 1013.00 1012.69 1012.12 1011.38 1010.57 1009.81 1009.21 1008.85 1008.73 1008.84 1009.08 1009.37 1009.60 1009.73 1009.71 1009.59 1009.43 1009.33 1009.36 1009.63 1010.14 1010.90 1011.83 1012.85 1013.87 1014.81 1015.59 1016.21 1016.67 1017.02 1017.31 1017.61 1017.94
1010.70 1010.53 1010.36 1010.26 1010.33 1010.60 1011.07 1011.68 1012.33 1012.91 1013.31 1013.44 1013.27 1012.82 1012.18 1011.44 1010.74 1010.19 1009.85 1009.73 1009.80 1010.00 1010.22 1010.37 1010.41 1010.30 1010.09 1009.85 1009.65 1009.61 1009.80 1010.23 1010.91 1011.77 1012.74 1013.73 1014.65 1015.45 1016.10 1016.63 1017.05 1017.43 1017.80 1018.19
1010.36 1010.02 1009.74 1009.62 1009.73 1010.09 1010.69 1011.44 1012.25 1012.99 1013.52 1013.78 1013.73 1013.40 1012.86 1012.23 1011.62 1011.14 1010.85 1010.76 1010.84 1011.01 1011.20 1011.30 1011.28 1011.12 1010.85 1010.55 1010.29 1010.18 1010.28 1010.61 1011.18 1011.94 1012.81 1013.71 1014.57 1015.35 1016.01 1016.57 1017.06 1017.50 1017.95 1018.41
1010.17 1009.71 1009.38 1009.25 1009.40 1009.83 1010.51 1011.37 1012.26 1013.07 1013.69 1014.02 1014.06 1013.83 1013.40 1012.87 1012.37 1011.99 1011.78 1011.75 1011.87 1012.05 1012.23 1012.33 1012.29 1012.11 1011.82 1011.49 1011.21 1011.04 1011.07 1011.31 1011.77 1012.39 1013.13 1013.91 1014.67 1015.38 1016.02 1016.59 1017.11 1017.62 1018.13 1018.66
1010.17 1009.66 1009.31 1009.21 1009.41 1009.89 1010.62 1011.49 1012.40 1013.21 1013.83 1014.19 1014.27 1014.10 1013.76 1013.36 1012.98 1012.72 1012.61 1012.66 1012.83 1013.05 1013.25 1013.36 1013.34 1013.18 1012.92 1012.61 1012.33 1012.15 1012.14 1012.31 1012.65 1013.15 1013.75 1014.39 1015.04 1015.66 1016.24 1016.79 1017.32 1017.86 1018.42 1019.00
1010.33 1009.84 1009.55 1009.51 1009.76 1010.28 1011.01 1011.85 1012.71 1013.45 1014.01 1014.33 1014.40 1014.28 1014.02 1013.72 1013.47 1013.33 1013.33 1013.47 1013.71 1013.98 1014.21 1014.35 1014.37 1014.26 1014.05 1013.80 1013.57 1013.42 1013.40 1013.53 1013.81 1014.20 1014.67 1015.18 1015.71 1016.23 1016.73 1017.24 1017.76 1018.30 1018.88 1019.49
1010.60 1010.21 1010.04 1010.10 1010.42 1010.96 1011.66 1012.43 1013.18 1013.81 1014.25 1014.50 1014.54 1014.43 1014.24 1014.05 1013.91 1013.89 1014.00 1014.23 1014.52 1014.83 1015.09 1015.26 1015.32 1015.27 1015.14 1014.97 1014.83 1014.75 1014.77 1014.91 1015.15 1015.48 1015.86 1016.27 1016.68 1017.10 1017.52 1017.97 1018.45 1018.97 1019.55 1020.16
1010.93 1010.70 1010.68 1010.88 1011.28 1011.84 1012.49 1013.17 1013.78 1014.26 1014.59 1014.74 1014.74 1014.65 1014.52 1014.42 1014.40 1014.49 1014.69 1014.97 1015.31 1015.64 1015.91 1016.09 1016.18 1016.18 1016.13 1016.06 1016.02 1016.04 1016.14 1016.33 1016.58 1016.89 1017.21 1017.55 1017.88 1018.21 1018.56 1018.93 1019.37 1019.85 1020.40 1020.98
1011.27 1011.25 1011.41 1011.75 1012.23 1012.80 1013.41 1013.98 1014.46 1014.80 1015.00 1015.07 1015.04 1014.97 1014.90 1014.89 1014.98 1015.16 1015.44 1015.77 1016.11 1016.43 1016.69 1016.86 1016.96 1017.00 1017.02 1017.04 1017.11 1017.24 1017.44 1017.70 1018.00 1018.32 1018.63 1018.92 1019.20 1019.46 1019.74 1020.06 1020.43 1020.86 1021.36 1021.90
1011.61 1011.80 1012.14 1012.61 1013.17 1013.75 1014.31 1014.78 1015.14 1015.36 1015.46 1015.47 1015.44 1015.40 1015.41 1015.49 1015.68 1015.94 1016.27 1016.62 1016.95 1017.24 1017.45 1017.60 1017.69 1017.75 1017.81 1017.92 1018.08 1018.32 1018.62 1018.97 1019.33 1019.68 1020.00 1020.27 1020.51 1020.73 1020.95 1021.21 1021.53 1021.90 1022.34 1022.82
1011.99 1012.36 1012.85 1013.43 1014.03 1014.61 1015.11 1015.49 1015.75 1015.88 1015.92 1015.91 1015.89 1015.91 1016.00 1016.19 1016.46 1016.80 1017.17 1017.52 1017.83 1018.07 1018.23 1018.33 1018.39 1018.45 1018.55 1018.71 1018.95 1019.28 1019.67 1020.09 1020.51 1020.90 1021.23 1021.50 1021.71 1021.89 1022.07 1022.28 1022.54 1022.86 1023.24 1023.65
1012.43 1012.93 1013.52 1014.15 1014.77 1015.32 1015.76 1016.07 1016.25 1016.32 1016.33 1016.32 1016.35 1016.45 1016.64 1016.93 1017.29 1017.69 1018.09 1018.44 1018.72 1018.91 1019.02 1019.06 1019.09 1019.15 1019.26 1019.46 1019.76 1020.15 1020.60 1021.07 1021.52 1021.93 1022.26 1022.52 1022.71 1022.87 1023.01 1023.17 1023.38 1023.64 1023.96 1024.32
1012.96 1013.52 1014.15 1014.79 1015.38 1015.88 1016.25 1016.48 1016.60 1016.64 1016.65 1016.68 1016.77 1016.96 1017.26 1017.65 1018.10 1018.56 1018.98 1019.34 1019.59 1019.74 1019.81 1019.82 1019.83 1019.87 1019.99 1020.21 1020.54 1020.95 1021.43 1021.91 1022.37 1022.77 1023.09 1023.32 1023.49 1023.61 1023.71 1023.84 1024.01 1024.22 1024.49 1024.80
1013.59 1014.16 1014.76 1015.35 1015.88 1016.29 1016.58 1016.75 1016.82 1016.85 1016.88 1016.96 1017.14 1017.43 1017.82 1018.31 1018.83 1019.35 1019.81 1020.17 1020.41 1020.55 1020.60 1020.59 1020.59 1020.64 1020.77 1021.00 1021.33 1021.74 1022.20 1022.66 1023.09 1023.45 1023.72 1023.91 1024.04 1024.12 1024.20 1024.29 1024.43 1024.61 1024.84 1025.11
1014.29 1014.81 1015.34 1015.84 1016.27 1016.58 1016.79 1016.90 1016.94 1016.97 1017.04 1017.19 1017.45 1017.84 1018.33 1018.89 1019.48 1020.05 1020.53 1020.91 1021.17 1021.31 1021.36 1021.37 1021.38 1021.44 1021.58 1021.81 1022.13 1022.52 1022.93 1023.34 1023.71 1024.00 1024.21 1024.34 1024.42 1024.47 1024.51 1024.58 1024.70 1024.86 1025.07 1025.30
1015.00 1015.44 1015.87 1016.26 1016.57 1016.79 1016.92 1016.98 1017.02 1017.07 1017.18 1017.40 1017.75 1018.21 1018.78 1019.42 1020.06 1020.66 1021.18 1021.58 1021.86 1022.02 1022.10 1022.13 1022.18 1022.26 1022.41 1022.64 1022.93 1023.28 1023.63 1023.97 1024.25 1024.45 1024.59 1024.66 1024.69 1024.71 1024.73 1024.79 1024.90 1025.05 1025.25 1025.47
1015.64 1015.98 1016.31 1016.59 1016.80 1016.93 1017.00 1017.04 1017.08 1017.17 1017.34 1017.64 1018.06 1018.60 1019.23 1019.92 1020.60 1021.22 1021.76 1022.18 1022.48 1022.67 1022.78 1022.86 1022.93 1023.05 1023.21 1023.43 1023.69 1023.98 1024.27 1024.52 1024.71 1024.84 1024.90 1024.91 1024.91 1024.90 1024.92 1024.98 1025.09 1025.25 1025.45 1025.66
1016.14 1016.40 1016.63 1016.81 1016.93 1017.01 1017.05 1017.09 1017.15 1017.30 1017.54 1017.91 1018.41 1019.01 1019.69 1020.41 1021.11 1021.75 1022.29 1022.72 1023.03 1023.25 1023.39 1023.50 1023.61 1023.75 1023.92 1024.12 1024.35 1024.59 1024.80 1024.97 1025.08 1025.13 1025.14 1025.11 1025.08 1025.07 1025.10 1025.18 1025.32 1025.50 1025.71 1025.92
1016.46 1016.65 1016.80 1016.92 1016.99 1017.03 1017.07 1017.14 1017.26 1017.47 1017.80 1018.25 1018.81 1019.46 1020.18 1020.91 1021.61 1022.24 1022.77 1023.19 1023.51 1023.74 1023.90 1024.04 1024.16 1024.30 1024.47 1024.65 1024.85 1025.03 1025.17 1025.28 1025.33 1025.33 1025.30 1025.25 1025.22 1025.23 1025.29 1025.40 1025.57 1025.78 1026.00 1026.22
1016.59 1016.73 1016.84 1016.91 1016.97 1017.02 1017.09 1017.20 1017.40 1017.69 1018.10 1018.61 1019.24 1019.93 1020.67 1021.40 1022.08 1022.69 1023.20 1023.60 1023.90 1024.12 1024.28 1024.42 1024.54 1024.68 1024.83 1024.98 1025.13 1025.26 1025.36 1025.41 1025.42 1025.39 1025.35 1025.31 1025.30 1025.35 1025.45 1025.60 1025.81 1026.05 1026.29 1026.52
1016.56 1016.67 1016.76 1016.83 1016.89 1016.98 1017.10 1017.29 1017.56 1017.93 1018.42 1019.00 1019.67 1020.39 1021.12 1021.84 1022.50 1023.07 1023.54 1023.91 1024.18 1024.38 1024.52 1024.63 1024.74 1024.85 1024.97 1025.09 1025.20 1025.28 1025.34 1025.36 1025.35 1025.32 1025.29 1025.28 1025.31 1025.39 1025.54 1025.75 1025.99 1026.26 1026.52 1026.75
1016.41 1016.52 1016.61 1016.71 1016.81 1016.95 1017.14 1017.40 1017.75 1018.19 1018.74 1019.37 1020.06 1020.79 1021.52 1022.21 1022.83 1023.36 1023.78 1024.10 1024.34 1024.50 1024.61 1024.69 1024.77 1024.84 1024.92 1025.00 1025.07 1025.12 1025.14 1025.15 1025.13 1025.12 1025.11 1025.14 1025.21 1025.35 1025.55 1025.79 1026.07 1026.36 1026.63 1026.86
Thickness
5687 5674 5670 5680 5690 5696 5702 5703 5703 5718 5738 5737 5737 5748 5766 5778 5781 5782 5785 5787 5787 5787 5793 5797 5800 5800 5795 5788 5784 5786 5783 5780 5775 5769 5763 5757 5751 5748 5745 5742 5739 5735 5731 5727
5665 5664 5679 5690 5695 5698 5699 5696 5703 5718 5737 5740 5736 5748 5767 5776 5779 5783 5784 5784 5783 5782 5786 5791 5794 5795 5793 5788 5785 5781 5778 5777 5774 5770 5763 5755 5747 5740 5736 5733 5729 5726 5722 5719
5653 5668 5686 5686 5687 5689 5694 5694 5702 5710 5727 5738 5736 5738 5755 5769 5773 5774 5775 5777 5780 5782 5782 5784 5786 5789 5788 5787 5786 5781 5776 5774 5770 5764 5756 5747 5739 5732 5726 5721 5717 5714 5712 5709
5657 5675 5681 5680 5683 5689 5685 5708 5712 5714 5708 5704 5721 5706 5740 5756 5755 5755 5757 5760 5764 5768 5773 5777 5780 5781 5782 5783 5782 5778 5772 5769 5764 5760 5753 5744 5735 5726 5720 5714 5708 5704 5701 5699
5658 5675 5676 5676 5687 5695 5696 5713 5714 5715 5708 5702 5710 5706 5721 5744 5739 5738 5742 5746 5751 5756 5762 5766 5770 5773 5776 5778 5776 5771 5767 5761 5757 5753 5746 5738 5728 5720 5713 5706 5699 5694 5690 5687
5664 5682 5684 5688 5701 5706 5709 5708 5706 5699 5689 5682 5703 5706 5707 5724 5734 5732 5734 5736 5738 5743 5748 5754 5758 5763 5765 5767 5766 5762 5756 5750 5746 5742 5735 5728 5720 5712 5704 5697 5689 5683 5679 5675
5657 5674 5690 5699 5693 5701 5700 5678 5663 5667 5662 5672 5703 5704 5700 5718 5730 5728 5724 5724 5726 5729 5733 5739 5743 5746 5747 5749 5750 5748 5744 5738 5734 5729 5723 5717 5711 5703 5696 5688 5680 5674 5669 5664
5643 5653 5683 5697 5693 5687 5689 5677 5656 5654 5658 5672 5697 5690 5695 5709 5714 5715 5713 5712 5713 5715 5719 5722 5726 5729 5731 5733 5734 5733 5729 5724 5720 5716 5710 5704 5698 5691 5683 5676 5670 5664 5658 5653
5643 5653 5688 5701 5707 5699 5686 5678 5680 5667 5672 5669 5678 5684 5692 5702 5701 5700 5699 5698 5698 5700 5703 5706 5709 5711 5713 5714 5714 5715 5712 5708 5704 5700 5695 5690 5684 5678 5670 5664 5658 5652 5646 5642
5653 5652 5676 5694 5700 5699 5695 5688 5667 5658 5652 5652 5672 5678 5678 5689 5689 5687 5684 5683 5683 5685 5686 5688 5691 5693 5694 5695 5695 5695 5694 5691 5687 5683 5679 5673 5667 5662 5656 5651 5645 5639 5634 5629
5655 5649 5661 5673 5668 5672 5680 5676 5667 5656 5656 5651 5652 5660 5681 5685 5682 5676 5672 5670 5669 5669 5670 5671 5672 5673 5675 5676 5677 5676 5674 5671 5667 5663 5660 5655 5650 5645 5641 5636 5630 5625 5619 5614
5652 5645 5643 5655 5670 5680 5673 5666 5659 5648 5650 5654 5649 5650 5670 5673 5671 5666 5660 5657 5655 5654 5654 5655 5656 5656 5657 5657 5657 5656 5655 5653 5649 5646 5642 5637 5632 5628 5623 5618 5613 5608 5603 5599
5653 5641 5631 5637 5648 5660 5660 5662 5659 5651 5644 5642 5639 5641 5656 5657 5655 5653 5648 5644 5641 5639 5640 5641 5641 5639 5638 5639 5638 5637 5636 5634 5631 5628 5624 5619 5614 5610 5605 5600 5595 5591 5587 5582
5658 5638 5633 5628 5634 5645 5649 5653 5654 5647 5633 5634 5636 5636 5638 5639 5639 5637 5634 5630 5629 5627 5627 5626 5626 5624 5622 5622 5620 5619 5617 5615 5612 5610 5605 5601 5596 5591 5586 5582 5578 5574 5569 5564
5650 5635 5640 5643 5648 5646 5643 5643 5645 5641 5639 5633 5632 5630 5628 5629 5628 5625 5622 5618 5615 5614 5613 5611 5611 5610 5608 5606 5604 5602 5599 5596 5593 5590 5586 5582 5577 5573 5569 5564 5560 5556 5551 5545
5641 5633 5634 5633 5640 5636 5629 5631 5634 5633 5633 5630 5627 5618 5617 5618 5617 5613 5610 5607 5602 5598 5597 5597 5596 5595 5593 5590 5588 5586 5583 5579 5575 5571 5566 5562 5559 5555 5551 5546 5542 5537 5533 5527
5634 5629 5621 5617 5629 5626 5608 5613 5617 5618 5623 5623 5615 5609 5608 5605 5602 5598 5595 5593 5589 5585 5583 5582 5580 5579 5578 5576 5573 5571 5567 5563 5559 5554 5549 5545 5541 5537 5533 5529 5524 5519 5514 5509
5634 5624 5612 5610 5612 5593 5601 5614 5615 5610 5609 5610 5606 5600 5596 5591 5586 5582 5581 5579 5576 5573 5569 5566 5563 5562 5560 5558 5557 5554 5551 5546 5542 5537 5533 5528 5524 5520 5515 5512 5507 5502 5497 5493
5637 5625 5610 5600 5597 5595 5603 5607 5608 5601 5592 5595 5591 5585 5581 5578 5575 5568 5565 5565 5562 5558 5555 5552 5550 5548 5546 5543 5540 5538 5534 5530 5526 5522 5518 5513 5509 5504 5499 5494 5490 5486 5482 5477
5632 5621 5608 5599 5592 5584 5591 5605 5609 5598 5582 5585 5583 5578 5575 5573 5565 5557 5553 5552 5549 5545 5543 5541 5538 5536 5532 5529 5526 5523 5519 5515 5511 5507 5503 5498 5493 5488 5484 5479 5474 5470 5466 5462
5613 5607 5598 5590 5583 5584 5596 5604 5603 5582 5576 5579 5577 5573 5569 5563 5556 5549 5544 5540 5537 5535 5532 5530 5527 5523 5519 5516 5513 5509 5504 5500 5496 5492 5488 5483 5478 5472 5468 5464 5459 5455 5451 5447
5605 5596 5591 5582 5574 5574 5592 5593 5583 5576 5576 5572 5567 5562 5557 5551 5546 5540 5535 5531 5528 5525 5522 5519 5515 5511 5507 5504 5501 5496 5490 5487 5483 5479 5474 5469 5464 5460 5455 5449 5444 5440 5436 5431
5607 5598 5588 5581 5575 5581 5586 5583 5580 5575 5570 5565 5558 5553 5550 5545 5538 5533 5527 5523 5520 5516 5512 5508 5504 5500 5496 5493 5489 5484 5480 5477 5472 5467 5461 5456 5452 5446 5441 5436 5431 5426 5421 5417
5611 5605 5590 5579 5579 5580 5579 5577 5574 5571 5566 5560 5554 5548 5543 5537 5531 5525 5520 5515 5511 5507 5503 5499 5495 5490 5486 5483 5480 5476 5472 5468 5463 5457 5451 5445 5439 5434 5429 5424 5419 5414 5409 5405
5608 5600 5585 5576 5576 5575 5573 5571 5569 5565 5560 5554 5548 5542 5536 5530 5523 5518 5513 5508 5504 5500 5496 5492 5487 5483 5480 5476 5473 5469 5465 5460 5453 5447 5441 5435 5430 5424 5418 5413 5408 5404 5401 5398
5600 5594 5582 5575 5576 5569 5566 5568 5566 5560 5555 5549 5543 5536 5530 5525 5519 5513 5507 5503 5499 5495 5491 5486 5482 5478 5474 5471 5467 5463 5459 5453 5446 5440 5434 5427 5422 5417 5411 5405 5399 5396 5394 5391